Weather History for Mankato, MN

Change the Weather History Date:

Wednesday, November 7, 2012

  Actual Average Record
Temperature  
Mean Temperature 40 °F -  
Max Temperature 44 °F 43 °F 75 °F (2001)
Min Temperature 35 °F 29 °F 15 °F (2003)
Degree Days  
Heating Degree Days 26    
Moisture  
Dew Point 33 °F    
Average Humidity 76    
Maximum Humidity 87    
Minimum Humidity 57    
Precipitation  
Precipitation 0.01 in - - ()
Sea Level Pressure  
Sea Level Pressure 30.07 in    
Wind  
Wind Speed 7 mph (West)    
Max Wind Speed 12 mph    
Max Gust Speed -    
Visibility 10 miles    
Events      
Averages and records for this station are not official NWS values.
T = Trace of Precipitation, MM = Missing Value Source: NWS Daily Summary

Daily Weather History Graph

Daily Weather History Graph

Search for Another Location

Airport:

Trip Planner

Search our weather history database for the weather conditions in past years. The results will help you decide how hot, cold, wet, or windy it might be!

Date:

Astronomy

Nov. 07, 2012 Rise Set
Actual Time 7:01 AM CST 4:56 PM CST
Civil Twilight 6:30 AM CST 5:27 PM CST
Nautical Twilight 5:55 AM CST 6:02 PM CST
Astronomical Twilight 5:22 AM CST 6:36 PM CST
Moon No Moon Rise 1:20 PM CST (11/7)
Length of Visible Light 10h 57m
Length of Day
9h 55m
Last Quarter, 43% of the Moon is Illuminated
Nov 7
Last Quarter
Nov 13
New
Nov 20
First Quarter
Nov 28
Full
Dec 6
Last Quarter

Hourly Weather History & Observations

Time (CST) Temp. Windchill Dew Point Humidity Pressure Visibility Wind Dir Wind Speed Gust Speed Precip Events Conditions
12:15 AM 39.2 °F 32.0 °F 33.8 °F 81% 29.99 in 10.0 mi NNW 11.5 mph - N/A   Overcast
12:35 AM 39.2 °F 32.5 °F 33.8 °F 81% 30.00 in 10.0 mi NNW 10.4 mph - N/A   Overcast
12:55 AM 39.2 °F 33.0 °F 33.8 °F 81% 30.00 in 10.0 mi NNW 9.2 mph - N/A   Overcast
1:35 AM 39.2 °F 33.0 °F 33.8 °F 81% 30.01 in 10.0 mi NNW 9.2 mph - N/A   Overcast
1:55 AM 39.2 °F 34.2 °F 33.8 °F 81% 30.01 in 10.0 mi North 6.9 mph - N/A   Overcast
2:15 AM 39.2 °F 33.6 °F 33.8 °F 81% 30.02 in 10.0 mi NNW 8.1 mph - N/A   Overcast
2:55 AM 39.2 °F 33.0 °F 33.8 °F 81% 30.03 in 10.0 mi NNW 9.2 mph - N/A   Overcast
3:15 AM 37.4 °F 31.4 °F 33.8 °F 87% 30.04 in 10.0 mi NNW 8.1 mph - N/A   Overcast
3:35 AM 37.4 °F 32.1 °F 33.8 °F 87% 30.04 in 10.0 mi NNW 6.9 mph - N/A   Overcast
3:55 AM 37.4 °F 31.4 °F 33.8 °F 87% 30.04 in 10.0 mi North 8.1 mph - N/A   Overcast
4:35 AM 37.4 °F 32.1 °F 33.8 °F 87% 30.06 in 10.0 mi NNW 6.9 mph - N/A   Overcast
4:55 AM 37.4 °F 32.8 °F 33.8 °F 87% 30.06 in 10.0 mi NNW 5.8 mph - N/A   Overcast
5:15 AM 37.4 °F 32.8 °F 33.8 °F 87% 30.07 in 10.0 mi NW 5.8 mph - N/A   Overcast
5:35 AM 37.4 °F 33.8 °F 33.8 °F 87% 30.08 in 10.0 mi NW 4.6 mph - N/A   Overcast
5:55 AM 37.4 °F 33.8 °F 33.8 °F 87% 30.07 in 10.0 mi NW 4.6 mph - N/A   Overcast
6:15 AM 37.4 °F 33.8 °F 33.8 °F 87% 30.08 in 10.0 mi NW 4.6 mph - N/A   Overcast
6:35 AM 37.4 °F 33.8 °F 33.8 °F 87% 30.08 in 10.0 mi NW 4.6 mph - N/A   Overcast
6:55 AM 37.4 °F 33.8 °F 33.8 °F 87% 30.09 in 10.0 mi NNW 4.6 mph - N/A   Overcast
7:15 AM 37.4 °F 33.8 °F 33.8 °F 87% 30.09 in 10.0 mi NW 4.6 mph - N/A   Overcast
7:35 AM 37.4 °F 34.9 °F 33.8 °F 87% 30.10 in 10.0 mi NNW 3.5 mph - N/A   Overcast
7:55 AM 39.2 °F 35.9 °F 33.8 °F 81% 30.10 in 10.0 mi NNW 4.6 mph - N/A   Overcast
8:15 AM 39.2 °F 35.0 °F 33.8 °F 81% 30.11 in 10.0 mi NNW 5.8 mph - N/A   Overcast
8:35 AM 39.2 °F 35.9 °F 33.8 °F 81% 30.11 in 10.0 mi NNW 4.6 mph - N/A   Overcast
8:55 AM 39.2 °F 37.0 °F 33.8 °F 81% 30.11 in 10.0 mi NNW 3.5 mph - N/A   Overcast
9:15 AM 39.2 °F 35.9 °F 33.8 °F 81% 30.11 in 10.0 mi North 4.6 mph - N/A   Overcast
9:35 AM 39.2 °F 35.9 °F 35.6 °F 87% 30.12 in 10.0 mi NNW 4.6 mph - N/A   Overcast
9:55 AM 41.0 °F 38.0 °F 33.8 °F 76% 30.12 in 10.0 mi NW 4.6 mph - N/A   Overcast
10:15 AM 41.0 °F - 33.8 °F 76% 30.12 in 10.0 mi Calm Calm - N/A   Overcast
10:35 AM 42.8 °F - 33.8 °F 70% 30.12 in 10.0 mi Calm Calm - N/A   Overcast
10:55 AM 42.8 °F 41.1 °F 33.8 °F 70% 30.12 in 10.0 mi North 3.5 mph - N/A   Overcast
11:15 AM 42.8 °F 40.1 °F 33.8 °F 70% 30.12 in 10.0 mi NNW 4.6 mph - N/A   Overcast
11:35 AM 42.8 °F 41.1 °F 32.0 °F 66% 30.12 in 10.0 mi West 3.5 mph - N/A   Overcast
11:55 AM 42.8 °F 41.1 °F 33.8 °F 70% 30.10 in 10.0 mi WNW 3.5 mph - N/A   Overcast
12:15 PM 44.6 °F - 33.8 °F 66% 30.10 in 10.0 mi Calm Calm - N/A   Overcast
12:35 PM 44.6 °F 43.1 °F 32.0 °F 61% 30.09 in 10.0 mi SSE 3.5 mph - N/A   Overcast
12:55 PM 44.6 °F 43.1 °F 32.0 °F 61% 30.09 in 10.0 mi WNW 3.5 mph - N/A   Overcast
1:15 PM 44.6 °F 41.4 °F 32.0 °F 61% 30.08 in 10.0 mi WSW 5.8 mph - N/A   Overcast
1:35 PM 44.6 °F - 30.2 °F 57% 30.08 in 10.0 mi Calm Calm - N/A   Overcast
1:55 PM 44.6 °F - 32.0 °F 61% 30.08 in 10.0 mi Calm Calm - N/A   Overcast
2:15 PM 44.6 °F - 30.2 °F 57% 30.08 in 10.0 mi Calm Calm - N/A   Overcast
2:35 PM 44.6 °F 43.1 °F 33.8 °F 66% 30.07 in 10.0 mi SSW 3.5 mph - N/A   Overcast
2:55 PM 44.6 °F - 32.0 °F 61% 30.08 in 10.0 mi Calm Calm - N/A   Overcast
3:15 PM 44.6 °F 41.4 °F 33.8 °F 66% 30.07 in 10.0 mi SSW 5.8 mph - N/A   Overcast
3:35 PM 44.6 °F 41.4 °F 33.8 °F 66% 30.07 in 10.0 mi South 5.8 mph - N/A   Overcast
3:55 PM 44.6 °F 41.4 °F 33.8 °F 66% 30.07 in 10.0 mi South 5.8 mph - N/A   Overcast
4:15 PM 44.6 °F 42.2 °F 32.0 °F 61% 30.07 in 10.0 mi South 4.6 mph - N/A   Overcast
4:35 PM 44.6 °F 41.4 °F 33.8 °F 66% 30.06 in 10.0 mi SSE 5.8 mph - N/A   Overcast
4:55 PM 44.6 °F 41.4 °F 32.0 °F 61% 30.06 in 10.0 mi South 5.8 mph - N/A   Overcast
5:15 PM 42.8 °F 39.3 °F 32.0 °F 66% 30.06 in 10.0 mi SSE 5.8 mph - N/A   Overcast
5:35 PM 41.0 °F 37.1 °F 32.0 °F 70% 30.06 in 10.0 mi South 5.8 mph - N/A   Scattered Clouds
5:55 PM 41.0 °F 38.0 °F 32.0 °F 70% 30.06 in 10.0 mi South 4.6 mph - N/A   Mostly Cloudy
6:15 PM 41.0 °F 36.4 °F 33.8 °F 76% 30.06 in 10.0 mi SSE 6.9 mph - N/A   Mostly Cloudy
6:35 PM 39.2 °F 33.6 °F 32.0 °F 75% 30.06 in 10.0 mi SSE 8.1 mph - N/A   Clear
6:55 PM 39.2 °F 33.6 °F 32.0 °F 75% 30.06 in 10.0 mi SSE 8.1 mph - N/A   Clear
7:15 PM 39.2 °F 33.6 °F 32.0 °F 75% 30.06 in 10.0 mi SSE 8.1 mph - N/A   Clear
7:35 PM 39.2 °F 33.6 °F 32.0 °F 75% 30.06 in 10.0 mi SSE 8.1 mph - N/A   Clear
7:55 PM 37.4 °F 30.8 °F 32.0 °F 81% 30.06 in 10.0 mi SSE 9.2 mph - N/A   Clear
8:15 PM 37.4 °F 30.3 °F 32.0 °F 81% 30.05 in 10.0 mi SSE 10.4 mph - N/A   Clear
8:35 PM 37.4 °F 30.8 °F 30.2 °F 75% 30.05 in 10.0 mi SSE 9.2 mph - N/A   Clear
8:55 PM 37.4 °F 30.8 °F 30.2 °F 75% 30.05 in 10.0 mi SSE 9.2 mph - N/A   Clear
9:15 PM 37.4 °F 30.8 °F 30.2 °F 75% 30.05 in 10.0 mi SSE 9.2 mph - N/A   Clear
9:35 PM 37.4 °F 30.3 °F 30.2 °F 75% 30.05 in 10.0 mi SSE 10.4 mph - N/A   Clear
9:55 PM 37.4 °F 30.8 °F 30.2 °F 75% 30.05 in 10.0 mi SSE 9.2 mph - N/A   Clear
10:15 PM 35.6 °F 29.2 °F 30.2 °F 81% 30.05 in 10.0 mi SSE 8.1 mph - N/A   Clear
10:35 PM 35.6 °F 28.6 °F 30.2 °F 81% 30.05 in 10.0 mi SSE 9.2 mph - N/A   Clear
10:55 PM 35.6 °F 28.0 °F 30.2 °F 81% 30.05 in 10.0 mi South 10.4 mph - N/A   Clear
11:15 PM 37.4 °F 30.3 °F 30.2 °F 75% 30.05 in 10.0 mi South 10.4 mph - N/A   Clear
11:35 PM 35.6 °F 28.0 °F 30.2 °F 81% 30.05 in 10.0 mi South 10.4 mph - N/A   Clear
11:55 PM 35.6 °F 29.2 °F 30.2 °F 81% 30.05 in 10.0 mi South 8.1 mph - N/A   Clear